Regional Weather Roundup
Issued by NWS Columbia, SC

Home | Current Version | Previous Version | Text Only | Print | Product List | Glossary On
Versions: 1 2 3 4 5 6 7 8 9 10 11 12 13 14 15 16 17 18 19 20 21 22 23 24 25 26 27 28
000
ASUS42 KCAE 161110
RWRCAE
REGIONAL WEATHER ROUNDUP
NATIONAL WEATHER SERVICE COLUMBIA SC
700 AM EDT WED APR 16 2014

NOTE: "FAIR" INDICATES FEW OR NO CLOUDS BELOW 12,000 FEET WITH NO
SIGNIFICANT WEATHER AND/OR OBSTRUCTIONS TO VISIBILITY.

NOT ALL STATIONS ARE QUALITY CONTROLLED BY THE NATIONAL
WEATHER SERVICE. USE DATA WITH CAUTION...ESPECIALLY
DEWPOINT OBSERVATIONS.

SCZ001>056-GAZ040-063>065-077-161200-
...UPSTATE SOUTH CAROLINA...

CITY           SKY/WX    TMP DP  RH WIND       PRES   REMARKS
ANDERSON       CLEAR     35  24  64 NE6       30.25R WCI  30
LIBERTY        FAIR      33  -5  20 MISG      30.23R
SPARTANBURG    FAIR      34  28  80 NE5       30.27R WCI  30
CLEMSON        CLEAR     36  24  62 E5        30.25R WCI  32
GREENVILLE     CLEAR     33  24  69 NE7       30.26R WCI  27
GREENWOOD      CLEAR     35  26  69 NE9       30.27R WCI  28
GREER          CLEAR     33  23  66 N5        30.24R WCI  29
ROCK HILL      CLEAR     34  22  61 NE7       30.28R WCI  28
CHESTER        FAIR      34  30  86 N8        30.28R WCI  27
LAURENS        FAIR      32 N/A N/A NE7       30.27R WCI  26


...CENTRAL SOUTH CAROLINA...

CITY           SKY/WX    TMP DP  RH WIND       PRES   REMARKS
COLUMBIA APT   PTCLDY    39  25  57 NE9       30.26R WCI  33
COLUMBIA OWENS CLEAR     39  23  52 VRB5      30.27R
DARLINGTON     CLEAR     36  23  60 N12       30.28R WCI  27
FLORENCE       CLEAR     37  26  64 N12       30.26R WCI  29
MCENTIRE ANGB  CLEAR     37  24  60 N8        30.26R WCI  30
ORANGEBURG     CLEAR     38  25  59 NE12      30.24R WCI  30
SUMTER SHAW    CLEAR     36  25  66 N12       30.25R WCI  27
NEWBERRY       FAIR      32  32 100 NE5       30.30R WCI  27
AIKEN          FAIR      36  32  87 CALM      30.26R
BARNWELL       FAIR      39  30  70 NE10      30.23R WCI  32
CAMDEN         FAIR      34  27  75 N6        30.28R WCI  29
LANCASTER      FAIR      32  25  74 N8        30.27R WCI  25
WINNSBORO      FAIR      34  27  75 N7        30.25R WCI  28


...EASTERN AND COASTAL SOUTH CAROLINA...

CITY           SKY/WX    TMP DP  RH WIND       PRES   REMARKS
MYRTLE BEACH   MOCLDY    41  28  60 N17       30.20R
N MYRTLE BCH   CLOUDY    41  30  65 N12G17    30.21R
CONWAY         PTSUNNY   37  30  75 N5        30.24R WCI  34
MARION         FAIR      37  27  65 N8G17     30.25R WCI  31
HARTSVILLE     FAIR      36  27  69 N7        30.27R WCI  30
FLORENCE       CLEAR     37  26  64 N12       30.26R WCI  29
DARLINGTON     CLEAR     36  23  60 N12       30.28R WCI  27
CHARLESTON APT PTCLDY    42  29  59 N15G23    30.21R
MOUNT PLEASANT FAIR     N/A N/A N/A N8        30.19R
WALTERBORO     SUNNY     39  30  70 N8        30.23R WCI  34
BEAUFORT       CLEAR     42  31  64 E14       30.20R


...EASTERN GEORGIA...

CITY           SKY/WX    TMP DP  RH WIND       PRES   REMARKS
AUGUSTA BUSH F CLEAR     36  28  73 NE7       30.24R WCI  30
AUGUSTA DANIEL CLEAR     38  29  70 N7        30.23R WCI  33
THOMSON        CLEAR     34  32  92 NE5       30.28R WCI  30
WASHINGTON     FAIR      34  30  86 NE6       30.24R WCI  29
CLAXTON        FAIR      43  36  75 NE6       30.21R
SYLVANIA       SUNNY     42  33  71 NE7       30.22R
STATESBORO     CLEAR     40  31  68 NE7       30.21R
SAVANNAH       PTCLDY    43  31  62 N12       30.20R


...SOUTHERN NORTH CAROLINA...

CITY           SKY/WX    TMP DP  RH WIND       PRES   REMARKS
CHARLOTTE      CLEAR     32  23  69 N7        30.28R WCI  26
MONROE         CLEAR     34  22  61 N7        30.26R WCI  28
WADESBORO      SUNNY     35  21  56 N8        30.28R WCI  29
ROCKINGHAM       N/A     33  26  75 N5        30.28R WCI  29
RUTHERFORDTON  CLEAR     32  21  65 E3        30.27R
ASHEVILLE      CLEAR     30  18  60 N16G25    30.22R WCI  19

$$



USA.gov is the U.S. government's official web portal to all federal, state and local government web resources and services.